Location: Newark
(41.4333°N, 15.1167°E)
Time: 19:07:33
(UTC+00:00)

N. Korean satellite - Visible Passes

Search period start: 07 December 2019 00:00
Search period end: 17 December 2019 00:00
Orbit: 456 x 506 km, 97.2° (Epoch: 06 December)

Date Brightness Start Highest point End Pass type
(mag) Time Alt. Az. Time Alt. Az. Time Alt. Az.
07 Dec 6.8 04:45:52 10° NNE 04:49:25 69° E 04:52:53 10° S visible
07 Dec 9.6 16:55:08 10° SW 16:57:56 20° W 17:00:44 10° NW visible
08 Dec 8.5 04:20:45 10° NNE 04:23:55 30° E 04:27:01 10° SSE visible
08 Dec 8.2 16:28:52 10° S 16:32:23 40° W 16:35:55 10° NNW visible
09 Dec 9.8 03:56:16 10° NE 03:58:19 15° E 04:00:21 10° SE visible
09 Dec 7.3 05:28:39 10° N 05:31:48 30° WNW 05:34:54 10° SW visible
09 Dec 6.7 16:03:13 10° SSE 16:06:56 89° W 16:10:39 10° NNW visible
10 Dec 6.4 05:02:56 10° N 05:06:28 68° WNW 05:09:54 10° SSW visible
10 Dec 10.1 17:13:30 10° WSW 17:15:08 12° W 17:16:47 10° WNW visible
11 Dec 7.4 04:37:34 10° NNE 04:41:02 52° E 04:44:24 10° S visible
11 Dec 9.2 16:46:27 10° SSW 16:49:32 25° W 16:52:37 10° NW visible
12 Dec 9.0 04:12:36 10° NE 04:15:29 24° E 04:18:20 10° SSE visible
12 Dec 7.6 16:20:24 10° S 16:24:01 52° W 16:27:38 10° NNW visible
13 Dec 10.0 03:48:37 10° ENE 03:49:51 11° E 03:51:05 10° ESE visible
13 Dec 6.9 05:20:10 10° N 05:23:27 38° WNW 05:26:41 10° SW visible
14 Dec 6.4 04:54:34 10° NNE 04:58:05 88° W 05:01:32 10° SSW visible
14 Dec 9.9 17:04:27 10° SW 17:06:42 15° W 17:08:58 10° NW visible
15 Dec 7.9 04:29:18 10° NNE 04:32:36 39° E 04:35:51 10° S visible
15 Dec 8.7 16:37:49 10° SSW 16:41:07 31° W 16:44:25 10° NNW visible
16 Dec 9.4 04:04:30 10° NE 04:07:02 19° E 04:09:31 10° SE visible
16 Dec 7.6 05:37:33 10° NNW 05:40:23 23° WNW 05:43:10 10° SW visible
16 Dec 7.1 16:11:58 10° S 16:15:38 67° W 16:19:16 10° NNW visible
